Regional Weather Roundup
Issued by NWS Sterling, VA

Home | Current Version | Previous Version | Graphics & Text | Print | Product List | Glossary On
Versions: 1 2 3 4 5 6 7 8 9 10 11 12 13 14 15 16 17 18 19 20 21 22 23 24 25 26 27 28 29 30 31 32 33 34 35 36 37 38 39 40 41 42 43 44 45 46 47 48 49 50
690
ASUS41 KLWX 291111
RWRLWX

REGIONAL WEATHER ROUNDUP
NATIONAL WEATHER SERVICE BALTIMORE MD/WASHINGTON DC
700 AM EDT SAT APR 29 2017

Note: "FAIR" indicates few or no clouds below 12,000 feet
with no significant weather and/or obstructions to visibility.
 TC=TEMPERATURE CELSIUS

 * =Non NWS site. Station does not report precipitation (e.g. rain,
    snow, etc.), thunder, or fog.

DCZ001-MDZ009-015-VAZ040>042-051-053>054-291200-
WASHINGTON METRO

CITY           SKY/WX    TMP DP  RH WIND       PRES   REMARKS
WASHINGTON NAT CLOUDY    71  68  90 S8        30.03R
DULLES         CLOUDY    68  64  87 S12       30.03R
ANDREWS AFB    CLOUDY    71  67  88 SW13      30.02R
FT BELVOIR     CLOUDY    71  67  85 CALM      30.03R
QUANTICO       CLOUDY    74  68  81 SW9       30.05R
COLLEGE PARK*  CLOUDY    72  66  82 SW6       30.03R
LEESBURG*      CLOUDY    68  66  94 W3        30.05R
MANASSAS*        N/A     69  66  90 SW6       30.05R

$$

MDZ006>007-011-014-291200-
BALTIMORE METRO

CITY           SKY/WX    TMP DP  RH WIND       PRES   REMARKS
BWI AIRPORT    CLOUDY    71  68  90 SW10      30.00R
MD SCIENCE CTR   N/A     73  65  75 MISG      30.00R
MARTIN STATE   CLOUDY    72  70  94 CALM      29.99R
ANNAPOLIS      CLOUDY    74  70  87 VRB6      29.99R
FORT MEADE*    MOCLDY    66  64  94 SW6       30.04R

$$

MDZ012-015-019>023-291200-
MARYLAND EASTERN SHORE

CITY           SKY/WX    TMP DP  RH WIND       PRES   REMARKS
OCEAN CITY     CLOUDY    72  70  93 SW9       30.06F FOG
SALISBURY      PTCLDY    74  73  97 SW16G23   30.05F
BAY BRIDGE AP* CLOUDY    72  68  88 SW13      30.00R
CAMBRIDGE*     CLEAR     72  70  94 S6G15     30.03F FOG
EASTON*        PTCLDY    73  68  83 SW9       30.04F

$$

MDZ017>025-291200-
SOUTHERN MARYLAND

CITY           SKY/WX    TMP DP  RH WIND       PRES   REMARKS
PATUXENT RIVER CLOUDY    74  73  97 SW16G24   30.02F
ST INIGOES     PTCLDY    74  71  91 S13       30.04F
LEONARDTOWN*   CLEAR     72  68  88 S9        30.06F

$$

MDZ003>005-291200-
NORTH CENTRAL MARYLAND

CITY           SKY/WX    TMP DP  RH WIND       PRES   REMARKS
FREDERICK*     CLEAR     70  70 100 S3        30.05R
HAGERSTOWN APT CLOUDY    67  64  90 SW6       30.03R
WESTMINSTER*   CLOUDY    68  64  88 W9        30.04R

$$

MDZ501>502-291200-
WESTERN MARYLAND

CITY           SKY/WX    TMP DP  RH WIND       PRES   REMARKS
OAKLAND*         N/A     55  55 100 W7        30.18F FOG
CUMBERLAND*    CLOUDY    68  61  77 W25G38    30.15R

$$

VAZ025>031-291200-
SHENANDOAH VALLEY

CITY           SKY/WX    TMP DP  RH WIND       PRES   REMARKS
WINCHESTER*    CLOUDY    64  59  82 SW12      30.06R
FRONT ROYAL*   CLOUDY    64  64 100 S3        30.07R
LURAY*         CLOUDY    70  63  78 SW7       30.09R
NEW MARKET*    CLOUDY    69  62  78 W7        30.10R
STAUNTON*      CLOUDY    66  62  86 S3        30.14R
WAYNESBORO*    CLOUDY    68  64  85 CALM      30.14R

$$

WVZ021-048>050-054>055-291200-
EASTERN WEST VIRGINIA PANHANDLE

CITY           SKY/WX    TMP DP  RH WIND       PRES   REMARKS
MARTINSBURG    CLOUDY    66  60  81 SW9       30.03R
PETERSBURG*    CLOUDY    69  59  70 W13G22    30.16R THUNDER

$$

VAZ036>039-050-291200-
CENTRAL FOOTHILLS

CITY           SKY/WX    TMP DP  RH WIND       PRES   REMARKS
CHARLOTTESVILL CLOUDY    69  66  90 S6        30.10R
CULPEPER*      CLOUDY    70  67  90 SW5       30.06R
ORANGE*        CLOUDY    68  64  88 W8        30.08R
GORDONSVILLE*  CLOUDY    67  66  97 SW7       30.08R
WARRENTON*     CLOUDY    71  64  80 SW5       30.05R

$$

VAZ055>057-291200-
NORTH AND CENTRAL PIEDMONT

CITY           SKY/WX    TMP DP  RH WIND       PRES   REMARKS
FREDERICKSBRG* PTCLDY    73  69  87 S9        30.04R
STAFFORD*      CLOUDY    71  68  92 SW5       30.09R

$$

NCZ024-NYZ072-PAZ021-071-VAZ022-071-291200-
OTHER REGIONAL OBSERVATIONS

CITY           SKY/WX    TMP DP  RH WIND       PRES   REMARKS
NEW YORK CITY  CLOUDY    64  63  96 W3        30.00R
PHILADELPHIA   CLOUDY    68  66  93 CALM      29.96F FOG
PITTSBURGH     CLOUDY    57  56  96 NE3       30.01R
ROANOKE        CLOUDY    67  62  84 CALM      30.17R
RICHMOND       CLOUDY    74  72  93 SW10      30.11R FOG
RALEIGH        MOCLDY    72  69  90 SW8       30.19R

$$

ANZ530>537-291200-
MARINE OBSERVATIONS

STATION/POSITION TIME  TEMP    WIND        PRES
                       AIR SEA DIR/SP/G
                 (UTC) (F)     (DEG/KT/KT) (MB)
THOMAS PT LIGHT  1100   66 60  210/ 12/ 12   N/A
BALT KEY BRIDGE  1048   72     240/  9/ 11 1015.2R
COVE POINT       1048   74     220/ 20/ 24 1016.7F
LEWISETTA        1048   74 68  220/ 10/ 12 1018.1F
SOLOMONS ISLAND  1048   72 62  210/ 16/ 20   N/A
PINEY POINT      1048          220/ 14/ 15   N/A

$$





USA.gov is the U.S. government's official web portal to all federal, state and local government web resources and services.